Location: Bannatyne
(13.0833°N, 59.5333°W)
Time: 13:59:00
(UTC+00:00)

Vanguard 2 Rocket - Pass Details

Date: 22 January 2020
Orbit: 554 x 3326 km, 32.9° (Epoch: 04 April)

Event Time Altitude Azimuth Distance (km) Brightness Sun altitude
Rises 19:14:48 0° 275° (W) 6,487 11.9 33.9°
Reaches altitude 10° 19:20:02 10° 263° (W) 5,804 12.1 32.9°
Maximum altitude 19:34:05 26° 215° (SW) 5,031 12.3 30.0°
Drops below altitude 10° 19:48:57 10° 166° (SSE) 6,046 11.4 26.9°
Sets 19:54:47 0° 154° (SSE) 6,784 11.4 25.7°
